Location: Cahas Mountain Overlook
(37.0833°N, 80.1000°W)
Time: 19:11:46
(UTC-04:00)

SR - Pass Details

Date: 15 February 2026
Orbit: 572 x 849 km, 66.7° (Epoch: 13 March)

Event Time Altitude Azimuth Distance (km) Brightness Sun altitude
Rises 14:07:49 0° 336° (NNW) 3,094 ? 35.8°
Reaches altitude 10° 14:10:08 10° 341° (NNW) 2,216 ? 35.6°
Maximum altitude 14:15:09 57° 60° (ENE) 896 ? 35.1°
Drops below altitude 10° 14:20:31 10° 139° (SE) 2,373 ? 34.5°
Sets 14:23:03 0° 143° (SE) 3,333 ? 34.3°
